Location: Newark
(53.2933°N, 6.3959°W)
Time: 12:07:17
(UTC+00:00)

Envisat - Visible Passes

Search period start: 20 February 2020 00:00
Search period end: 01 March 2020 00:00
Orbit: 764 x 766 km, 98.1° (Epoch: 20 February)

Date Brightness Start Highest point End Pass type
(mag) Time Alt. Az. Time Alt. Az. Time Alt. Az.
20 Feb 4.3 06:45:48 10° NNE 06:50:44 46° E 06:55:37 10° S visible
20 Feb 6.4 19:49:07 10° WSW 19:51:33 13° W 19:53:59 10° NW visible
21 Feb 5.6 06:09:28 10° NE 06:13:39 25° E 06:17:47 10° SE visible
21 Feb 5.5 19:10:05 10° SSW 19:14:16 25° W 19:18:29 10° NW visible
22 Feb 6.4 05:34:03 10° NE 05:36:21 13° E 05:38:39 10° ESE visible
22 Feb 4.2 18:32:18 10° S 18:37:12 48° W 18:42:08 10° NNW visible
23 Feb 4.7 06:34:35 10° NNE 06:39:22 38° E 06:44:05 10° SSE visible
23 Feb 6.2 19:36:56 10° SW 19:40:05 16° W 19:43:15 10° NW visible
24 Feb 5.9 05:58:25 10° NE 06:02:13 21° E 06:05:59 10° SE visible
24 Feb 5.2 18:58:24 10° SSW 19:02:52 30° W 19:07:22 10° NNW visible
25 Feb 6.7 05:24:01 10° ENE 05:24:52 10° E 05:25:42 10° E visible
26 Feb 5.1 06:23:25 10° NNE 06:27:58 32° E 06:32:30 10° SSE visible
26 Feb 5.9 19:24:58 10° SW 19:28:38 20° W 19:32:19 10° NW visible
27 Feb 6.2 05:47:28 10° NE 05:50:46 17° E 05:54:02 10° SE visible
27 Feb 4.8 18:46:47 10° SSW 18:51:28 37° W 18:56:11 10° NNW visible
28 Feb 6.4 19:52:26 10° WSW 19:54:30 12° W 19:56:34 10° WNW visible
29 Feb 5.5 06:12:16 10° NE 06:16:34 27° E 06:20:49 10° SSE visible
29 Feb 5.7 19:13:08 10° SW 19:17:11 24° W 19:21:16 10° NW visible
